Weather History for Walhalla, ND

Change the Weather History Date:

Saturday, May 10, 2014

  Actual Average (KGAF) Record (KGAF)
Temperature  
Mean Temperature 54 °F -  
Max Temperature 68 °F 68 °F 93 °F (1987)
Min Temperature 41 °F 42 °F 25 °F (1981)
Degree Days  
Heating Degree Days 10    
Growing Degree Days 4 (Base 50)    
Moisture  
Dew Point 30 °F    
Average Humidity 38    
Maximum Humidity 61    
Minimum Humidity 21    
Precipitation  
Precipitation 0.00 in - - ()
Sea Level Pressure  
Sea Level Pressure 29.73 in    
Wind  
Wind Speed 7 mph (South)    
Max Wind Speed 14 mph    
Max Gust Speed 23 mph    
Visibility 10 miles    
Events      
Averages and records for this station are not official NWS values.
T = Trace of Precipitation, MM = Missing Value Source: NWS Daily Summary

Daily Weather History Graph

Daily Weather History Graph

Search for Another Location

Airport:

Trip Planner

Search our weather history database for the weather conditions in past years. The results will help you decide how hot, cold, wet, or windy it might be!

Date:

Astronomy

May. 10, 2014 Rise Set
Actual Time 5:56 AM CDT 9:00 PM CDT
Civil Twilight 5:19 AM CDT 9:37 PM CDT
Nautical Twilight 4:31 AM CDT 10:26 PM CDT
Astronomical Twilight 3:31 AM CDT 11:27 PM CDT
Moon 4:36 PM CDT (5/10) 3:53 AM CDT (5/10)
Length of Visible Light 16h 18m
Length of Day
15h 03m
Waxing Gibbous, 82% of the Moon is Illuminated
May 10
Waxing Gibbous
May 14
Full
May 21
Last Quarter
May 28
New
Jun 5
First Quarter

Hourly Weather History & Observations

Time (CDT) Temp. Windchill Dew Point Humidity Pressure Visibility Wind Dir Wind Speed Gust Speed Precip Events Conditions
12:15 AM 44.6 °F 43.1 °F 30.2 °F 57% 29.72 in 10.0 mi SW 3.5 mph - N/A   Clear
12:35 AM 44.6 °F 42.2 °F 30.2 °F 57% 29.72 in 10.0 mi SSW 4.6 mph - N/A   Clear
12:55 AM 42.8 °F 41.1 °F 30.2 °F 61% 29.72 in 10.0 mi SSW 3.5 mph - N/A   Clear
1:15 AM 42.8 °F 40.1 °F 28.4 °F 57% 29.72 in 10.0 mi SSW 4.6 mph - N/A   Clear
1:35 AM 42.8 °F 39.3 °F 28.4 °F 57% 29.72 in 10.0 mi SW 5.8 mph - N/A   Unknown
1:55 AM 44.6 °F 43.1 °F 28.4 °F 53% 29.72 in 10.0 mi SW 3.5 mph - N/A   Clear
2:15 AM 41.0 °F 38.0 °F 28.4 °F 61% 29.71 in 10.0 mi SW 4.6 mph - N/A   Clear
2:35 AM 41.0 °F 38.0 °F 28.4 °F 61% 29.71 in 10.0 mi SSW 4.6 mph - N/A   Clear
2:55 AM 41.0 °F 39.0 °F 28.4 °F 61% 29.71 in 10.0 mi SSW 3.5 mph - N/A   Clear
3:15 AM 42.8 °F 40.1 °F 28.4 °F 57% 29.71 in 10.0 mi SSW 4.6 mph - N/A   Unknown
3:35 AM 44.6 °F 41.4 °F 26.6 °F 49% 29.71 in 10.0 mi SW 5.8 mph - N/A   Clear
3:55 AM 46.4 °F 42.9 °F 26.6 °F 46% 29.71 in 10.0 mi SW 6.9 mph - N/A   Unknown
4:15 AM 46.4 °F 42.9 °F 26.6 °F 46% 29.71 in 10.0 mi SSW 6.9 mph - N/A   Clear
4:35 AM 44.6 °F 40.2 °F 26.6 °F 49% 29.72 in 10.0 mi SSW 8.1 mph - N/A   Clear
4:55 AM 44.6 °F 40.7 °F 26.6 °F 49% 29.72 in 10.0 mi SSW 6.9 mph - N/A   Clear
5:15 AM 44.6 °F 43.1 °F 26.6 °F 49% 29.72 in 10.0 mi SSW 3.5 mph - N/A   Clear
5:35 AM 44.6 °F 40.7 °F 26.6 °F 49% 29.72 in 10.0 mi SW 6.9 mph - N/A   Unknown
5:55 AM 42.8 °F 38.6 °F 26.6 °F 53% 29.72 in 10.0 mi SW 6.9 mph - N/A   Unknown
6:15 AM 42.8 °F - 26.6 °F 53% 29.73 in 10.0 mi Calm Calm - N/A   Unknown
6:35 AM 44.6 °F 43.1 °F 26.6 °F 49% 29.73 in 10.0 mi SW 3.5 mph - N/A   Unknown
6:55 AM 46.4 °F 43.5 °F 26.6 °F 46% 29.73 in 10.0 mi SSW 5.8 mph - N/A   Unknown
7:15 AM 48.2 °F - 26.6 °F 43% 29.74 in 10.0 mi SW 8.1 mph - N/A   Unknown
7:35 AM 50.0 °F - 26.6 °F 40% 29.74 in 10.0 mi SW 8.1 mph - N/A   Unknown
7:55 AM 53.6 °F - 28.4 °F 38% 29.75 in 10.0 mi SW 8.1 mph - N/A   Unknown
8:15 AM 55.4 °F - 28.4 °F 36% 29.75 in 10.0 mi SW 11.5 mph 19.6 mph N/A   Unknown
8:35 AM 57.2 °F - 28.4 °F 33% 29.74 in 10.0 mi SW 12.7 mph 17.3 mph N/A   Unknown
8:55 AM 57.2 °F - 28.4 °F 33% 29.75 in 10.0 mi SW 9.2 mph - N/A   Unknown
9:15 AM 59.0 °F - 30.2 °F 34% 29.75 in 10.0 mi SSW 12.7 mph - N/A   Unknown
9:35 AM 59.0 °F - 30.2 °F 34% 29.75 in 10.0 mi WSW 11.5 mph - N/A   Unknown
9:55 AM 60.8 °F - 30.2 °F 31% 29.75 in 10.0 mi SW 9.2 mph - N/A   Unknown
10:15 AM 62.6 °F - 32.0 °F 32% 29.75 in 10.0 mi SW 10.4 mph - N/A   Unknown
10:35 AM 62.6 °F - 28.4 °F 27% 29.75 in 10.0 mi SW 8.1 mph - N/A   Clear
10:55 AM 62.6 °F - 28.4 °F 27% 29.75 in 10.0 mi SW 11.5 mph 17.3 mph N/A   Clear
11:15 AM 64.4 °F - 28.4 °F 26% 29.75 in 10.0 mi South 10.4 mph 18.4 mph N/A   Clear
11:35 AM 64.4 °F - 30.2 °F 28% 29.75 in 10.0 mi SSW 9.2 mph 19.6 mph N/A   Clear
11:55 AM 64.4 °F - 30.2 °F 28% 29.75 in 10.0 mi SW 9.2 mph - N/A   Clear
12:15 PM 64.4 °F - 28.4 °F 26% 29.74 in 10.0 mi SW 10.4 mph - N/A   Clear
12:35 PM 66.2 °F - 26.6 °F 23% 29.74 in 10.0 mi South 6.9 mph 16.1 mph N/A   Clear
12:55 PM 64.4 °F - 26.6 °F 24% 29.73 in 10.0 mi South 10.4 mph - N/A   Clear
1:15 PM 66.2 °F - 26.6 °F 23% 29.73 in 10.0 mi SW 6.9 mph - N/A   Clear
1:35 PM 66.2 °F - 24.8 °F 21% 29.73 in 10.0 mi SSW 4.6 mph - N/A   Clear
1:55 PM 68.0 °F - 26.6 °F 21% 29.72 in 10.0 mi South 10.4 mph 18.4 mph N/A   Clear
2:15 PM 68.0 °F - 26.6 °F 21% 29.72 in 10.0 mi SSW 12.7 mph 18.4 mph N/A   Clear
2:35 PM 68.0 °F - 28.4 °F 23% 29.72 in 10.0 mi South 10.4 mph - N/A   Clear
2:55 PM 68.0 °F - 30.2 °F 24% 29.72 in 10.0 mi SSE 12.7 mph - N/A   Clear
3:15 PM 68.0 °F - 30.2 °F 24% 29.72 in 10.0 mi South 10.4 mph 16.1 mph N/A   Clear
3:35 PM 66.2 °F - 28.4 °F 24% 29.72 in 10.0 mi SSE 11.5 mph - N/A   Clear
3:55 PM 66.2 °F - 28.4 °F 24% 29.72 in 10.0 mi SSE 12.7 mph 23.0 mph N/A   Clear
4:15 PM 68.0 °F - 28.4 °F 23% 29.72 in 10.0 mi SE 13.8 mph 18.4 mph N/A   Clear
4:35 PM 68.0 °F - 32.0 °F 26% 29.72 in 10.0 mi SE 10.4 mph 16.1 mph N/A   Clear
4:55 PM 66.2 °F - 32.0 °F 28% 29.72 in 10.0 mi SSE 10.4 mph - N/A   Clear
5:15 PM 66.2 °F - 32.0 °F 28% 29.73 in 10.0 mi SSE 8.1 mph - N/A   Clear
5:35 PM 66.2 °F - 32.0 °F 28% 29.73 in 10.0 mi ESE 11.5 mph - N/A   Clear
5:55 PM 66.2 °F - 32.0 °F 28% 29.73 in 10.0 mi SE 9.2 mph - N/A   Clear
6:15 PM 64.4 °F - 28.4 °F 26% 29.73 in 10.0 mi ESE 8.1 mph - N/A   Clear
6:35 PM 64.4 °F - 30.2 °F 28% 29.73 in 10.0 mi SE 6.9 mph - N/A   Clear
6:55 PM 64.4 °F - 32.0 °F 30% 29.73 in 10.0 mi Calm Calm - N/A   Clear
7:15 PM 64.4 °F - 32.0 °F 30% 29.73 in 10.0 mi East 3.5 mph - N/A   Clear
7:35 PM 64.4 °F - 32.0 °F 30% 29.73 in 10.0 mi NE 4.6 mph - N/A   Clear
7:55 PM 62.6 °F - 35.6 °F 37% 29.73 in 10.0 mi NNE 4.6 mph - N/A   Clear
8:15 PM 60.8 °F - 37.4 °F 42% 29.73 in 10.0 mi NNE 5.8 mph - N/A   Mostly Cloudy
8:35 PM 59.0 °F - 37.4 °F 45% 29.73 in 10.0 mi North 6.9 mph - N/A   Overcast
8:55 PM 59.0 °F - 39.2 °F 48% 29.74 in 10.0 mi North 6.9 mph - N/A   Overcast
9:15 PM 59.0 °F - 35.6 °F 42% 29.74 in 10.0 mi North 5.8 mph - N/A   Overcast
9:35 PM 59.0 °F - 37.4 °F 45% 29.75 in 10.0 mi North 10.4 mph - N/A   Overcast
9:55 PM 62.6 °F - 32.0 °F 32% 29.76 in 10.0 mi ENE 8.1 mph - N/A   Overcast
10:15 PM 59.0 °F - 35.6 °F 42% 29.77 in 10.0 mi SSE 4.6 mph - N/A   Overcast
10:35 PM 62.6 °F - 32.0 °F 32% 29.78 in 10.0 mi East 10.4 mph 18.4 mph N/A   Overcast
10:55 PM 62.6 °F - 32.0 °F 32% 29.78 in 10.0 mi East 5.8 mph - N/A   Overcast
11:15 PM 59.0 °F - 35.6 °F 42% 29.79 in 10.0 mi SE 10.4 mph - N/A   Overcast
11:35 PM 62.6 °F - 32.0 °F 32% 29.78 in 10.0 mi East 10.4 mph - N/A   Overcast
11:55 PM 60.8 °F - 35.6 °F 39% 29.79 in 10.0 mi East 6.9 mph - N/A   Overcast